QTRB8K LTAI-LTFM

Flight info

Callsign QTRB8K
Flight time 1h 2m
Altitude 31000
Route EKSEN1K/18L EKSEN UM855 SISPI
Aircraft A320/M-SDE3FGHIRWY/LB1

Departure

Time 2026-05-05 14:51
Airport Antalya International Airport (LTAI)

Arrival

Time 2026-05-05 15:54
Airport İstanbul Airport (LTFM)
Time Latitude Longitude Altitude Speed Heading
2026-05-05 14:16 36.89526 30.80241 203 ft 0 kts 186°
2026-05-05 14:37 36.89542 30.80243 207 ft 2 kts 186°
2026-05-05 14:38 36.89559 30.80246 197 ft 3 kts 182°
2026-05-05 14:38 36.89576 30.80242 207 ft 2 kts 157°
2026-05-05 14:38 36.89591 30.80232 203 ft 3 kts 129°
2026-05-05 14:38 36.89599 30.80213 204 ft 1 kts 94°
2026-05-05 14:42 36.89597 30.80240 205 ft 8 kts 96°
2026-05-05 14:42 36.89590 30.80323 206 ft 11 kts 98°
2026-05-05 14:42 36.89578 30.80432 203 ft 14 kts 98°
2026-05-05 14:42 36.89572 30.80502 192 ft 4 kts 96°
2026-05-05 14:43 36.89567 30.80550 192 ft 7 kts 96°
2026-05-05 14:43 36.89565 30.80572 197 ft 3 kts 96°
2026-05-05 14:43 36.89567 30.80579 198 ft 0 kts 73°
2026-05-05 14:43 36.89570 30.80580 197 ft 1 kts 35°
2026-05-05 14:44 36.89581 30.80576 202 ft 5 kts 353°
2026-05-05 14:44 36.89658 30.80564 198 ft 13 kts 353°
2026-05-05 14:44 36.89666 30.80564 202 ft 1 kts 356°
2026-05-05 14:44 36.89671 30.80563 200 ft 0 kts 356°
2026-05-05 14:45 36.89672 30.80563 199 ft 1 kts 356°
2026-05-05 14:45 36.89689 30.80563 197 ft 4 kts
2026-05-05 14:45 36.89728 30.80566 196 ft 7 kts
2026-05-05 14:46 36.89778 30.80577 197 ft 7 kts 30°
2026-05-05 14:46 36.89793 30.80634 192 ft 8 kts 88°
2026-05-05 14:46 36.89811 30.80708 197 ft 8 kts 38°
2026-05-05 14:46 36.89875 30.80732 192 ft 11 kts
2026-05-05 14:47 36.89958 30.80745 192 ft 13 kts
2026-05-05 14:47 36.90058 30.80762 203 ft 16 kts
2026-05-05 14:47 36.90175 30.80776 192 ft 18 kts
2026-05-05 14:47 36.90307 30.80794 198 ft 21 kts
2026-05-05 14:48 36.90457 30.80810 202 ft 23 kts 357°
2026-05-05 14:48 36.90572 30.80828 192 ft 16 kts
2026-05-05 14:48 36.90693 30.80845 195 ft 19 kts
2026-05-05 14:48 36.90834 30.80864 195 ft 21 kts
2026-05-05 14:49 36.90991 30.80885 201 ft 24 kts
2026-05-05 14:49 36.91083 30.80900 195 ft 13 kts
2026-05-05 14:49 36.91137 30.80974 196 ft 13 kts 90°
2026-05-05 14:49 36.91126 30.81099 193 ft 16 kts 98°
2026-05-05 14:50 36.91081 30.81136 193 ft 0 kts 183°
2026-05-05 14:50 36.91068 30.81135 204 ft 3 kts 183°
2026-05-05 14:50 36.91062 30.81134 203 ft 0 kts 183°
2026-05-05 14:50 36.90857 30.81109 200 ft 65 kts 188°
2026-05-05 14:51 36.90208 30.81012 190 ft 122 kts 185°
2026-05-05 14:51 36.89269 30.80868 429 ft 144 kts 186°
2026-05-05 14:51 36.88270 30.80779 1048 ft 145 kts 179°
2026-05-05 14:51 36.87240 30.80937 1574 ft 155 kts 173°
2026-05-05 14:52 36.86112 30.81145 2037 ft 172 kts 172°
2026-05-05 14:52 36.84873 30.81369 2511 ft 188 kts 172°
2026-05-05 14:52 36.83518 30.81615 2985 ft 204 kts 172°
2026-05-05 14:52 36.82048 30.81881 3401 ft 224 kts 172°
2026-05-05 14:53 36.80461 30.82166 4023 ft 234 kts 171°
2026-05-05 14:53 36.78906 30.82796 4794 ft 242 kts 153°
2026-05-05 14:53 36.77335 30.83746 5384 ft 260 kts 153°
2026-05-05 14:53 36.75707 30.84867 6016 ft 276 kts 141°
2026-05-05 14:54 36.74395 30.86652 6746 ft 283 kts 118°
2026-05-05 14:54 36.73681 30.88927 7603 ft 284 kts 97°
2026-05-05 14:54 36.73464 30.91385 8451 ft 288 kts 92°
2026-05-05 14:54 36.73272 30.93894 9314 ft 293 kts 93°
2026-05-05 14:55 36.73069 30.96435 10164 ft 297 kts 93°
2026-05-05 14:55 36.72855 30.99069 10680 ft 313 kts 94°
2026-05-05 14:55 36.72635 31.01809 11101 ft 330 kts 94°
2026-05-05 14:55 36.72454 31.04733 11490 ft 346 kts 86°
2026-05-05 14:56 36.72939 31.07677 11995 ft 351 kts 64°
2026-05-05 14:56 36.74254 31.10222 12692 ft 350 kts 44°
2026-05-05 14:56 36.76191 31.12028 13420 ft 349 kts 24°
2026-05-05 14:56 36.78514 31.12878 14082 ft 350 kts
2026-05-05 14:57 36.80946 31.13216 14708 ft 353 kts
2026-05-05 14:57 36.83399 31.13120 15365 ft 353 kts 348°
2026-05-05 14:57 36.85760 31.12255 16004 ft 356 kts 340°
2026-05-05 14:57 36.88123 31.11256 16630 ft 360 kts 340°
2026-05-05 14:58 36.90503 31.10233 17281 ft 363 kts 340°
2026-05-05 14:58 36.92901 31.09192 17956 ft 367 kts 340°
2026-05-05 14:58 36.95320 31.08139 18593 ft 370 kts 339°
2026-05-05 14:58 36.97759 31.07082 19227 ft 372 kts 339°
2026-05-05 14:59 37.00212 31.06020 19894 ft 374 kts 339°
2026-05-05 14:59 37.02679 31.04946 20560 ft 376 kts 339°
2026-05-05 14:59 37.05155 31.03866 21205 ft 378 kts 338°
2026-05-05 14:59 37.07643 31.02782 21825 ft 380 kts 338°
2026-05-05 15:00 37.10115 31.01707 22402 ft 382 kts 338°
2026-05-05 15:00 37.11823 31.00967 22789 ft 384 kts 338°
2026-05-05 15:00 37.15181 30.99513 23564 ft 387 kts 338°
2026-05-05 15:00 37.17726 30.98406 23873 ft 388 kts 338°
2026-05-05 15:01 37.20275 30.97295 23949 ft 388 kts 338°
2026-05-05 15:01 37.22822 30.96184 23966 ft 388 kts 338°
2026-05-05 15:01 37.25373 30.95072 23968 ft 388 kts 338°
2026-05-05 15:01 37.27930 30.93960 23970 ft 388 kts 338°
2026-05-05 15:02 37.30486 30.92850 23974 ft 388 kts 338°
2026-05-05 15:02 37.33043 30.91735 23973 ft 388 kts 338°
2026-05-05 15:02 37.35594 30.90617 23976 ft 388 kts 338°
2026-05-05 15:02 37.38145 30.89495 24266 ft 391 kts 338°
2026-05-05 15:03 37.40720 30.88363 24717 ft 393 kts 338°
2026-05-05 15:03 37.43315 30.87223 25167 ft 396 kts 338°
2026-05-05 15:03 37.45922 30.86079 25563 ft 398 kts 338°
2026-05-05 15:03 37.48547 30.84925 25958 ft 401 kts 338°
2026-05-05 15:04 37.51191 30.83762 26362 ft 403 kts 337°
2026-05-05 15:04 37.53846 30.82595 26766 ft 405 kts 337°
2026-05-05 15:04 37.56481 30.81437 27148 ft 408 kts 337°
2026-05-05 15:04 37.59171 30.80252 27552 ft 410 kts 337°
2026-05-05 15:05 37.64587 30.77861 28308 ft 415 kts 337°
2026-05-05 15:05 37.67317 30.76656 28660 ft 417 kts 337°
2026-05-05 15:05 37.70068 30.75440 29036 ft 420 kts 337°
2026-05-05 15:06 37.72834 30.74217 29388 ft 423 kts 337°
2026-05-05 15:06 37.75619 30.72983 29714 ft 425 kts 337°
2026-05-05 15:06 37.78417 30.71742 30065 ft 428 kts 337°
2026-05-05 15:06 37.81231 30.70496 30425 ft 428 kts 337°
2026-05-05 15:07 37.84045 30.69251 30798 ft 429 kts 337°
2026-05-05 15:07 37.86822 30.68021 31169 ft 429 kts 338°
2026-05-05 15:07 37.89708 30.66995 31546 ft 432 kts 346°
2026-05-05 15:07 37.92695 30.66493 31912 ft 435 kts 351°
2026-05-05 15:08 37.95705 30.66074 32021 ft 431 kts 351°
2026-05-05 15:08 38.01631 30.65242 32033 ft 428 kts 351°
2026-05-05 15:09 38.07563 30.64460 32033 ft 428 kts 351°
2026-05-05 15:09 38.13492 30.63691 32029 ft 428 kts 351°
2026-05-05 15:10 38.19436 30.62922 32027 ft 429 kts 351°
2026-05-05 15:10 38.25334 30.62140 32029 ft 428 kts 351°
2026-05-05 15:11 38.31263 30.61347 32034 ft 428 kts 351°
2026-05-05 15:11 38.37193 30.60550 32033 ft 428 kts 351°
2026-05-05 15:12 38.43128 30.59748 32034 ft 429 kts 351°
2026-05-05 15:12 38.49059 30.58949 32035 ft 428 kts 352°
2026-05-05 15:13 38.54985 30.58153 32030 ft 428 kts 352°
2026-05-05 15:13 38.60917 30.57345 32027 ft 428 kts 352°
2026-05-05 15:14 38.66847 30.56538 32021 ft 429 kts 352°
2026-05-05 15:14 38.72787 30.55725 32023 ft 429 kts 352°
2026-05-05 15:15 38.78671 30.54841 32026 ft 428 kts 347°
2026-05-05 15:15 38.84220 30.52268 32030 ft 425 kts 332°
2026-05-05 15:16 38.89514 30.48863 32033 ft 426 kts 332°
2026-05-05 15:16 38.94830 30.45474 32042 ft 426 kts 333°
2026-05-05 15:17 38.99251 30.42650 32045 ft 427 kts 333°
2026-05-05 15:17 39.04566 30.39237 32050 ft 427 kts 333°
2026-05-05 15:18 39.09882 30.35814 32046 ft 428 kts 333°
2026-05-05 15:18 39.15213 30.32387 32053 ft 428 kts 333°
2026-05-05 15:19 39.20543 30.28958 32049 ft 428 kts 333°
2026-05-05 15:19 39.25872 30.25515 32051 ft 429 kts 333°
2026-05-05 15:20 39.31206 30.22051 32052 ft 429 kts 333°
2026-05-05 15:20 39.36552 30.18593 32054 ft 430 kts 333°
2026-05-05 15:21 39.41910 30.15127 32059 ft 431 kts 333°
2026-05-05 15:21 39.47274 30.11664 32073 ft 431 kts 334°
2026-05-05 15:22 39.52731 30.08541 32074 ft 431 kts 337°
2026-05-05 15:22 39.58287 30.05571 32075 ft 432 kts 337°
2026-05-05 15:23 39.63831 30.02553 32078 ft 432 kts 336°
2026-05-05 15:23 39.69389 29.99440 31799 ft 439 kts 336°
2026-05-05 15:23 39.72195 29.97853 31544 ft 440 kts 336°
2026-05-05 15:24 39.75008 29.96266 31300 ft 441 kts 336°
2026-05-05 15:24 39.77829 29.94678 31047 ft 441 kts 336°
2026-05-05 15:24 39.80638 29.93099 30228 ft 442 kts 336°
2026-05-05 15:24 39.83433 29.91532 29413 ft 440 kts 337°
2026-05-05 15:25 39.86091 29.90044 28882 ft 431 kts 337°
2026-05-05 15:25 39.88836 29.88523 28137 ft 428 kts 339°
2026-05-05 15:25 39.91654 29.87449 27805 ft 415 kts 349°
2026-05-05 15:25 39.94476 29.87019 27552 ft 404 kts 358°
2026-05-05 15:26 39.97290 29.87006 27330 ft 405 kts 359°
2026-05-05 15:26 40.00103 29.87005 26973 ft 403 kts 359°
2026-05-05 15:26 40.02906 29.86999 26246 ft 406 kts 359°
2026-05-05 15:26 40.05736 29.86992 25589 ft 404 kts 359°
2026-05-05 15:27 40.08528 29.86981 25112 ft 399 kts 359°
2026-05-05 15:27 40.11286 29.86970 24596 ft 395 kts 359°
2026-05-05 15:27 40.14024 29.86962 24083 ft 392 kts 359°
2026-05-05 15:27 40.16750 29.86961 23582 ft 390 kts 359°
2026-05-05 15:28 40.19439 29.86960 23204 ft 383 kts 359°
2026-05-05 15:28 40.22096 29.86957 22867 ft 381 kts 359°
2026-05-05 15:28 40.24744 29.86949 22520 ft 379 kts 359°
2026-05-05 15:28 40.27379 29.86940 22192 ft 377 kts 359°
2026-05-05 15:29 40.30003 29.86930 21859 ft 375 kts 359°
2026-05-05 15:29 40.32610 29.86924 21522 ft 374 kts 359°
2026-05-05 15:29 40.35202 29.86920 21186 ft 372 kts 359°
2026-05-05 15:29 40.37782 29.86918 20819 ft 369 kts
2026-05-05 15:30 40.40293 29.87342 20582 ft 358 kts 13°
2026-05-05 15:30 40.42595 29.88431 20458 ft 346 kts 25°
2026-05-05 15:30 40.44600 29.90020 20317 ft 336 kts 33°
2026-05-05 15:30 40.46493 29.91763 20001 ft 331 kts 33°
2026-05-05 15:31 40.48374 29.93487 19614 ft 329 kts 33°
2026-05-05 15:31 40.50263 29.95159 19230 ft 326 kts 28°
2026-05-05 15:31 40.52328 29.96345 18842 ft 322 kts 15°
2026-05-05 15:31 40.54518 29.96890 18452 ft 319 kts
2026-05-05 15:32 40.56735 29.96924 18015 ft 318 kts 359°
2026-05-05 15:32 40.58942 29.96920 17600 ft 316 kts 359°
2026-05-05 15:32 40.61131 29.96922 17211 ft 314 kts 359°
2026-05-05 15:32 40.63301 29.96836 16832 ft 310 kts 350°
2026-05-05 15:33 40.65319 29.95932 16474 ft 307 kts 329°
2026-05-05 15:33 40.66939 29.94144 16100 ft 305 kts 309°
2026-05-05 15:33 40.67963 29.91713 15735 ft 306 kts 291°
2026-05-05 15:33 40.68646 29.89059 15340 ft 305 kts 290°
2026-05-05 15:34 40.69328 29.86414 14986 ft 304 kts 291°
2026-05-05 15:34 40.70008 29.83788 14634 ft 302 kts 291°
2026-05-05 15:34 40.70684 29.81177 14275 ft 301 kts 291°
2026-05-05 15:34 40.71360 29.78575 13960 ft 299 kts 291°
2026-05-05 15:35 40.72030 29.75984 13625 ft 298 kts 291°
2026-05-05 15:35 40.72687 29.73445 13257 ft 296 kts 291°
2026-05-05 15:35 40.73348 29.70888 12877 ft 294 kts 291°
2026-05-05 15:35 40.74006 29.68345 12508 ft 292 kts 291°
2026-05-05 15:36 40.74657 29.65819 12141 ft 290 kts 291°
2026-05-05 15:36 40.75303 29.63306 11767 ft 288 kts 291°
2026-05-05 15:36 40.75943 29.60809 11402 ft 287 kts 291°
2026-05-05 15:36 40.76581 29.58328 11050 ft 285 kts 291°
2026-05-05 15:37 40.77215 29.55859 10688 ft 283 kts 292°
2026-05-05 15:37 40.77847 29.53401 10328 ft 282 kts 292°
2026-05-05 15:37 40.78473 29.50961 9996 ft 280 kts 292°
2026-05-05 15:37 40.79095 29.48537 9626 ft 278 kts 292°
2026-05-05 15:38 40.79714 29.46123 9262 ft 276 kts 292°
2026-05-05 15:38 40.80330 29.43722 8899 ft 274 kts 292°
2026-05-05 15:38 40.80937 29.41347 8535 ft 273 kts 292°
2026-05-05 15:38 40.81539 29.38982 8176 ft 271 kts 292°
2026-05-05 15:39 40.82135 29.36627 7820 ft 269 kts 291°
2026-05-05 15:39 40.82730 29.34290 7465 ft 268 kts 291°
2026-05-05 15:39 40.83324 29.31964 7121 ft 267 kts 291°
2026-05-05 15:39 40.83914 29.29649 6787 ft 265 kts 291°
2026-05-05 15:40 40.84499 29.27347 6451 ft 264 kts 291°
2026-05-05 15:40 40.85072 29.25086 6095 ft 262 kts 291°
2026-05-05 15:40 40.85649 29.22805 5747 ft 261 kts 291°
2026-05-05 15:40 40.86224 29.20538 5394 ft 259 kts 291°
2026-05-05 15:41 40.86794 29.18290 5051 ft 258 kts 291°
2026-05-05 15:41 40.87358 29.16064 4840 ft 251 kts 290°
2026-05-05 15:41 40.87898 29.13917 4708 ft 241 kts 290°
2026-05-05 15:41 40.88414 29.11855 4575 ft 232 kts 290°
2026-05-05 15:42 40.88914 29.09863 4378 ft 226 kts 290°
2026-05-05 15:42 40.89406 29.07901 4080 ft 224 kts 290°
2026-05-05 15:42 40.89899 29.05934 4000 ft 226 kts 290°
2026-05-05 15:42 40.90395 29.03959 4005 ft 226 kts 290°
2026-05-05 15:43 40.90893 29.01983 4008 ft 227 kts 290°
2026-05-05 15:43 40.91249 28.99954 4009 ft 228 kts 278°
2026-05-05 15:43 40.91423 28.97865 4007 ft 229 kts 278°
2026-05-05 15:43 40.91603 28.95782 4006 ft 228 kts 278°
2026-05-05 15:44 40.91784 28.93717 4011 ft 228 kts 279°
2026-05-05 15:44 40.91969 28.91630 4011 ft 229 kts 279°
2026-05-05 15:44 40.92154 28.89543 4011 ft 229 kts 279°
2026-05-05 15:44 40.92337 28.87451 4009 ft 229 kts 279°
2026-05-05 15:45 40.92518 28.85388 4008 ft 219 kts 279°
2026-05-05 15:45 40.92683 28.83459 4008 ft 203 kts 279°
2026-05-05 15:45 40.92879 28.81623 4005 ft 201 kts 289°
2026-05-05 15:45 40.93441 28.79947 4010 ft 199 kts 306°
2026-05-05 15:46 40.94360 28.78604 4011 ft 196 kts 323°
2026-05-05 15:46 40.95510 28.77643 4012 ft 196 kts 330°
2026-05-05 15:46 40.96687 28.76729 4010 ft 196 kts 332°
2026-05-05 15:46 40.97977 28.76207 4008 ft 195 kts 357°
2026-05-05 15:47 40.99337 28.76180 4013 ft 194 kts 359°
2026-05-05 15:47 41.00206 28.76163 4008 ft 184 kts 358°
2026-05-05 15:47 41.01895 28.76130 4010 ft 181 kts 358°
2026-05-05 15:47 41.03142 28.76106 4010 ft 181 kts 358°
2026-05-05 15:48 41.04404 28.76082 4012 ft 182 kts 358°
2026-05-05 15:48 41.05670 28.76058 4009 ft 182 kts 358°
2026-05-05 15:48 41.06935 28.76034 3999 ft 182 kts 358°
2026-05-05 15:48 41.08176 28.76011 3895 ft 175 kts 358°
2026-05-05 15:49 41.09383 28.75989 3658 ft 172 kts 358°
2026-05-05 15:49 41.10575 28.75966 3440 ft 170 kts 358°
2026-05-05 15:49 41.11750 28.75944 3218 ft 169 kts 359°
2026-05-05 15:49 41.12919 28.75922 2985 ft 165 kts 359°
2026-05-05 15:50 41.14035 28.75901 2767 ft 155 kts 359°
2026-05-05 15:50 41.15043 28.75882 2589 ft 135 kts 359°
2026-05-05 15:50 41.15974 28.75864 2398 ft 133 kts 359°
2026-05-05 15:50 41.16902 28.75846 2215 ft 133 kts 359°
2026-05-05 15:51 41.17829 28.75829 2031 ft 133 kts 359°
2026-05-05 15:51 41.18743 28.75812 1856 ft 132 kts 359°
2026-05-05 15:51 41.19601 28.75795 1683 ft 132 kts 359°
2026-05-05 15:51 41.20509 28.75787 1528 ft 132 kts 360°
2026-05-05 15:52 41.21438 28.75764 1345 ft 132 kts 359°
2026-05-05 15:52 41.22343 28.75731 1117 ft 131 kts 358°
2026-05-05 15:52 41.23257 28.75714 968 ft 133 kts 360°
2026-05-05 15:52 41.24172 28.75700 785 ft 130 kts
2026-05-05 15:53 41.25080 28.75687 602 ft 130 kts 359°
2026-05-05 15:53 41.25987 28.75664 421 ft 130 kts 360°
2026-05-05 15:53 41.26874 28.75655 330 ft 117 kts
2026-05-05 15:53 41.27487 28.75640 334 ft 57 kts
2026-05-05 15:54 41.27802 28.75637 332 ft 41 kts 356°
2026-05-05 15:54 41.28039 28.75571 331 ft 29 kts 329°
2026-05-05 15:54 41.28097 28.75527 331 ft 2 kts 330°
2026-05-05 15:54 41.28102 28.75522 334 ft 0 kts 330°
2026-05-05 15:55 41.28103 28.75522 334 ft 1 kts 330°
2026-05-05 15:55 41.28153 28.75475 334 ft 17 kts 313°
2026-05-05 15:56 41.28126 28.75357 334 ft 15 kts 216°
2026-05-05 15:56 41.28038 28.75360 333 ft 13 kts 180°
2026-05-05 15:56 41.27935 28.75360 331 ft 16 kts 180°
2026-05-05 15:56 41.27809 28.75360 334 ft 20 kts 180°
2026-05-05 15:57 41.27680 28.75360 334 ft 14 kts 180°
2026-05-05 15:57 41.27575 28.75361 331 ft 17 kts 180°
2026-05-05 15:57 41.27449 28.75362 331 ft 20 kts 179°
2026-05-05 15:57 41.27331 28.75367 331 ft 17 kts 179°
2026-05-05 15:58 41.27222 28.75369 334 ft 14 kts 179°
2026-05-05 15:58 41.27158 28.75297 331 ft 13 kts 276°
2026-05-05 15:58 41.27154 28.75175 333 ft 14 kts 267°
2026-05-05 15:58 41.27159 28.75027 332 ft 18 kts 274°
2026-05-05 15:59 41.27154 28.74885 333 ft 15 kts 263°
2026-05-05 15:59 41.27151 28.74743 334 ft 15 kts 269°
2026-05-05 15:59 41.27147 28.74632 334 ft 9 kts 250°
2026-05-05 15:59 41.27114 28.74612 331 ft 5 kts 198°
2026-05-05 16:00 41.27077 28.74605 332 ft 6 kts 181°
2026-05-05 16:00 41.27033 28.74604 333 ft 7 kts 181°
2026-05-05 16:00 41.26981 28.74604 332 ft 8 kts 178°
2026-05-05 16:00 41.26924 28.74609 331 ft 9 kts 177°
2026-05-05 16:01 41.26871 28.74612 334 ft 5 kts 178°
2026-05-05 16:01 41.26831 28.74613 331 ft 7 kts 180°
2026-05-05 16:01 41.26772 28.74612 334 ft 10 kts 180°
2026-05-05 16:01 41.26696 28.74612 333 ft 6 kts 180°
2026-05-05 16:02 41.26679 28.74611 333 ft 2 kts 181°
2026-05-05 16:02 41.26655 28.74618 334 ft 5 kts 156°
2026-05-05 16:02 41.26642 28.74651 334 ft 3 kts 83°
2026-05-05 16:02 41.26641 28.74697 334 ft 7 kts 90°
2026-05-05 16:03 41.26641 28.74736 334 ft 4 kts 88°
2026-05-05 16:03 41.26641 28.74748 334 ft 0 kts 92°